Beaufort MCAS, SC

3:21 PM EDT on May 23, 2017 (GMT -0400)
Beaufort Marine Corps Air Station

Weather History for KNBC - January, 2012

Change the Weather History Date:

Wednesday, January 11, 2012

  Actual Average Record
Temperature  
Mean Temperature 60 °F -  
Max Temperature 66 °F 56 °F 81 °F (1939)
Min Temperature 53 °F 37 °F 13 °F (1982)
Degree Days  
Heating Degree Days 6    
Growing Degree Days 10 (Base 50)    
Moisture  
Dew Point 56 °F    
Average Humidity 86    
Maximum Humidity 94    
Minimum Humidity 67    
Precipitation  
Precipitation 0.20 in - - ()
Sea Level Pressure  
Sea Level Pressure 29.74 in    
Wind  
Wind Speed 6 mph (SSE)    
Max Wind Speed 14 mph    
Max Gust Speed 25 mph    
Visibility 8 miles    
Events Rain    
Averages and records for this station are not official NWS values.
T = Trace of Precipitation, MM = Missing Value Source: NWS Daily Summary

Daily Weather History Graph

Daily Weather History Graph

Search for Another Location

Airport or City:

Trip Planner

Search our weather history database for the weather conditions in past years. The results will help you decide how hot, cold, wet, or windy it might be!

Date:

Astronomy

Jan. 11, 2012 Rise Set
Actual Time 7:25 AM EST 5:36 PM EST
Civil Twilight 6:58 AM EST 6:02 PM EST
Nautical Twilight 6:28 AM EST 6:33 PM EST
Astronomical Twilight 5:58 AM EST 7:03 PM EST
Moon 8:21 PM EST (1/11) 8:46 AM EST (1/11)
Length of Visible Light 11h 04m
Length of Day
10h 10m
Waning Gibbous, 93% of the Moon is Illuminated
Jan 11
Waning Gibbous
Jan 16
Last Quarter
Jan 23
New
Jan 30
First Quarter
Feb 7
Full

Hourly Weather History & Observations

Time (EST) Temp. Dew Point Humidity Pressure Visibility Wind Dir Wind Speed Gust Speed Precip Events Conditions
12:56 AM 57.0 °F 54.0 °F 89% 29.94 in 8.0 mi Calm Calm - N/A   Overcast
1:56 AM 55.9 °F 54.0 °F 93% 29.92 in 9.0 mi North 3.5 mph - N/A   Clear
2:56 AM 55.0 °F 52.0 °F 89% 29.89 in 6.0 mi Calm Calm - N/A   Clear
3:56 AM 59.0 °F 57.0 °F 93% 29.88 in 9.0 mi ESE 3.5 mph - N/A   Clear
4:56 AM 60.1 °F 57.0 °F 90% 29.85 in 10.0 mi SE 5.8 mph - N/A   Clear
5:56 AM 61.0 °F 57.9 °F 90% 29.85 in 10.0 mi SE 5.8 mph - N/A   Partly Cloudy
6:56 AM 61.0 °F 57.9 °F 90% 29.85 in 10.0 mi SE 3.5 mph - 0.00 in Rain Light Rain
8:56 AM 64.0 °F 59.0 °F 84% 29.82 in 10.0 mi SE 9.2 mph - N/A   Overcast
9:56 AM 66.0 °F 59.0 °F 78% 29.81 in 10.0 mi SE 10.4 mph 19.6 mph N/A   Mostly Cloudy
10:56 AM 66.0 °F 59.0 °F 78% 29.82 in 10.0 mi SSE 11.5 mph 17.3 mph N/A   Mostly Cloudy
11:56 AM 64.9 °F 60.1 °F 84% 29.78 in 5.0 mi SSE 8.1 mph - 0.01 in Rain Light Rain
12:56 PM 63.0 °F 60.1 °F 90% 29.72 in 4.0 mi SSE 12.7 mph 25.3 mph 0.07 in Rain Rain
1:52 PM 62.6 °F 59.0 °F 88% 29.68 in 4.0 mi SE 11.5 mph 19.6 mph 0.04 in Rain Rain
1:56 PM 62.1 °F 59.0 °F 90% 29.68 in 4.0 mi SSE 12.7 mph 19.6 mph 0.04 in Rain Rain
2:33 PM 62.6 °F 60.8 °F 94% 29.66 in 1.0 mi SSE 11.5 mph - 0.06 in Rain Heavy Rain
2:54 PM 62.1 °F 60.1 °F 93% 29.65 in 4.0 mi SSE 8.1 mph - 0.08 in Rain Light Rain
3:56 PM 63.0 °F 60.1 °F 90% 29.64 in 6.0 mi South 12.7 mph 18.4 mph 0.00 in   Mostly Cloudy
3:58 PM 62.6 °F 60.8 °F 94% 29.63 in 10.0 mi SSE 13.8 mph 19.6 mph N/A   Overcast
4:11 PM 62.6 °F 59.0 °F 88% 29.63 in 6.0 mi SSE 10.4 mph 20.7 mph N/A   Mostly Cloudy
4:54 PM 62.6 °F 59.0 °F 88% 29.63 in 10.0 mi South 9.2 mph - N/A   Mostly Cloudy
4:56 PM 63.0 °F 59.0 °F 87% 29.63 in 10.0 mi South 8.1 mph - N/A   Mostly Cloudy
5:08 PM 62.6 °F 59.0 °F 88% 29.62 in 10.0 mi South 9.2 mph - N/A   Scattered Clouds
5:56 PM 60.1 °F 57.9 °F 93% 29.65 in 10.0 mi South 6.9 mph - N/A   Partly Cloudy
6:56 PM 59.0 °F 55.9 °F 90% 29.66 in 10.0 mi South 5.8 mph - N/A   Clear
7:56 PM 60.1 °F 55.9 °F 86% 29.68 in 10.0 mi SSW 9.2 mph - N/A   Clear
8:56 PM 59.0 °F 48.0 °F 67% 29.70 in 10.0 mi SW 12.7 mph - N/A   Partly Cloudy
9:56 PM 55.9 °F 45.0 °F 67% 29.72 in 10.0 mi SW 9.2 mph - N/A   Clear
10:56 PM 53.1 °F 45.0 °F 74% 29.74 in 10.0 mi SSW 8.1 mph - N/A   Clear
11:56 PM 53.1 °F 43.0 °F 69% 29.76 in 10.0 mi SW 8.1 mph - N/A   Clear